{"data":{"norad_id":52332,"intl_designator":"2022-045B","name":"STARLINK-3831","alt_names":[],"object_type":"PAYLOAD","status":"ACTIVE","operator":null,"country":"US","launch_date":"2022-04-29","launch_site_code":"AFETR","launch_vehicle":null,"mission":null,"orbit_class":"UNKNOWN","rcs_meters":null,"size_class":null,"mass_kg":null,"dimensions":null,"purposes":["comms"],"wikipedia_slug":null,"has_3d_model":false,"image_url":null,"decayed_at":null,"tle_current":{"epoch":"2026-05-24T13:41:44.152224Z","epoch_age_seconds":109248,"freshness":"FRESH","line1":"1 52332U 22045B   26144.57064991 -.00001735  00000+0 -90925-4 0  9992","line2":"2 52332  53.2141 228.4876 0001010  90.1929 269.9179 15.08842956227093","mean_motion":15.08842956,"eccentricity":0.000101,"inclination_deg":53.2141,"raan_deg":228.4876,"arg_perigee_deg":90.1929,"mean_anomaly_deg":269.9179,"bstar":-9.0925e-5,"rev_number":22709,"period_min":95.437367704423,"perigee_km":539.0356486627,"apogee_km":540.43305867614,"semimajor_km":6917.8713536694,"source":"CELESTRAK","updated_at":"2026-05-25T13:38:17.112299Z"}}}